Location: Kapuskasing
(49.3803°N, 82.4001°W)
Time: 11:14:01
(UTC-04:00)

RS-44 - Pass Details

Date: 18 March 2026
Orbit: 1175 x 1510 km, 82.5° (Epoch: 11 April)

Event Time Altitude Azimuth Distance (km) Brightness Sun altitude
Rises 02:10:37 0° 352° (N) 4,398 ? -41.0°
Reaches altitude 10° 02:13:47 10° 2° (N) 3,470 ? -40.9°
Maximum altitude 02:21:10 33° 64° (ENE) 2,236 ? -40.7°
Enters shadow 02:23:27 29° 92° (E) 2,408 ? -40.6°
